Retour au catalogue

ORBCOMM FM 23

ActifCommunicationsLEO
NORAD 25477·PAYLOAD·🇺🇸 United States

Lancé Sep 23, 1998 depuis Cape Canaveral Space Force Station

Loading…

Prochains Passages (prochaines 24 heures)

TLE

FraisSource: Space-Track

Époque: Sep 14, 2026, 08:13 UTC

1 25477U 98053C   26257.34246295  .00000452  00000-0  19257-3 0  9995
2 25477  45.0076 278.2220 0004051 299.1788  60.8655 14.38577009462776

Suivez ORBCOMM FM 23 en temps réel avec AllMySat

Download on the App Store